Weather History for Cincinnati, OH

Change the Weather History Date:

Thursday, April 3, 2014

  Actual Average Record
Temperature  
Mean Temperature 58 °F -  
Max Temperature 64 °F 61 °F 82 °F (2012)
Min Temperature 52 °F 40 °F 24 °F (1972)
Degree Days  
Heating Degree Days 7    
Growing Degree Days 8 (Base 50)    
Moisture  
Dew Point 54 °F    
Average Humidity 93    
Maximum Humidity 100    
Minimum Humidity 80    
Precipitation  
Precipitation 1.42 in - - ()
Sea Level Pressure  
Sea Level Pressure 29.88 in    
Wind  
Wind Speed 5 mph (East)    
Max Wind Speed 14 mph    
Max Gust Speed 22 mph    
Visibility 8 miles    
Events Rain , Thunderstorm    
Averages and records for this station are not official NWS values.
T = Trace of Precipitation, MM = Missing Value Source: NWS Daily Summary

Daily Weather History Graph

Daily Weather History Graph

Search for Another Location

Airport:

Trip Planner

Search our weather history database for the weather conditions in past years. The results will help you decide how hot, cold, wet, or windy it might be!

Date:

Astronomy

Apr. 03, 2014 Rise Set
Actual Time 7:19 AM EDT 8:03 PM EDT
Civil Twilight 6:52 AM EDT 8:30 PM EDT
Nautical Twilight 6:20 AM EDT 9:02 PM EDT
Astronomical Twilight 5:47 AM EDT 9:35 PM EDT
Moon 9:49 AM EDT (4/3) No Moon Set
Length of Visible Light 13h 38m
Length of Day
12h 44m
Waxing Crescent, 17% of the Moon is Illuminated
Apr 3
Waxing Crescent
Apr 7
First Quarter
Apr 15
Full
Apr 22
Last Quarter
Apr 29
New

Hourly Weather History & Observations

Time (EDT) Temp. Dew Point Humidity Pressure Visibility Wind Dir Wind Speed Gust Speed Precip Events Conditions
12:20 AM 52.0 °F 51.1 °F 97% 30.06 in 7.0 mi North 5.8 mph - N/A   Mostly Cloudy
12:30 AM 53.1 °F 52.0 °F 96% 30.05 in 10.0 mi NE 6.9 mph - N/A   Mostly Cloudy
12:53 AM 52.0 °F 51.1 °F 97% 30.04 in 10.0 mi Calm Calm - N/A   Mostly Cloudy
1:53 AM 52.0 °F 51.1 °F 97% 30.05 in 7.0 mi North 3.5 mph - 0.05 in Rain Rain
2:01 AM 52.0 °F 52.0 °F 100% 30.03 in 6.0 mi ENE 4.6 mph - 0.03 in Rain Rain
2:53 AM 53.1 °F 52.0 °F 96% 30.00 in 10.0 mi North 3.5 mph - 0.13 in Rain Light Rain
3:41 AM 53.1 °F 52.0 °F 96% 29.99 in 10.0 mi East 4.6 mph - 0.02 in Rain Light Rain
3:53 AM 52.0 °F 51.1 °F 97% 29.98 in 8.0 mi NE 6.9 mph - 0.02 in Rain Light Rain
4:53 AM 52.0 °F 51.1 °F 97% 29.98 in 10.0 mi NE 5.8 mph - 0.00 in Rain Light Rain
5:53 AM 52.0 °F 51.1 °F 97% 29.96 in 10.0 mi NE 4.6 mph - 0.01 in   Overcast
6:53 AM 53.1 °F 51.1 °F 93% 29.98 in 10.0 mi Calm Calm - 0.00 in Rain Light Rain
7:10 AM 53.1 °F 51.1 °F 93% 29.99 in 6.0 mi West 4.6 mph - 0.03 in Rain , Thunderstorm Thunderstorms and Rain
7:53 AM 53.1 °F 52.0 °F 96% 29.93 in 9.0 mi Variable 5.8 mph - 0.29 in Rain Light Rain
8:53 AM 53.1 °F 52.0 °F 96% 29.96 in 4.0 mi NNE 6.9 mph - 0.13 in Rain Heavy Rain
9:30 AM 53.1 °F 52.0 °F 96% 29.94 in 10.0 mi West 5.8 mph - 0.07 in Rain Light Rain
9:53 AM 53.1 °F 52.0 °F 96% 29.92 in 3.0 mi ESE 9.2 mph - 0.14 in Rain Heavy Rain
10:03 AM 53.1 °F 52.0 °F 96% 29.89 in 4.0 mi East 10.4 mph 19.6 mph 0.05 in Rain Rain
10:21 AM 53.1 °F 52.0 °F 96% 29.92 in 5.0 mi Calm Calm - 0.08 in Rain Rain
10:28 AM 53.1 °F 52.0 °F 96% 29.88 in 5.0 mi East 9.2 mph - 0.10 in Rain Rain
10:39 AM 53.1 °F 52.0 °F 96% 29.89 in 6.0 mi Calm Calm - 0.12 in Rain Rain
10:50 AM 53.6 °F 51.8 °F 94% 29.92 in 6.0 mi WNW 4.6 mph - 0.13 in Rain Rain
10:53 AM 54.0 °F 52.0 °F 93% 29.91 in 5.0 mi NE 3.5 mph - 0.14 in Rain Rain
11:53 AM 55.0 °F 53.1 °F 93% 29.84 in 6.0 mi SE 13.8 mph 20.7 mph 0.08 in Rain Light Rain
12:00 PM 55.0 °F 53.1 °F 93% 29.83 in 10.0 mi ESE 12.7 mph 21.9 mph 0.00 in Rain Light Rain
12:26 PM 55.9 °F 53.1 °F 90% 29.83 in 6.0 mi SSW 5.8 mph 16.1 mph 0.01 in Rain , Thunderstorm Light Thunderstorms and Rain
12:53 PM 57.0 °F 54.0 °F 89% 29.79 in 8.0 mi Calm Calm - 0.06 in Rain Light Rain
1:09 PM 55.9 °F 54.0 °F 93% 29.78 in 6.0 mi Calm Calm - 0.04 in Rain , Thunderstorm Thunderstorms and Rain
1:35 PM 55.9 °F 54.0 °F 93% 29.83 in 5.0 mi Calm Calm - 0.19 in Rain , Thunderstorm Light Thunderstorms and Rain
1:53 PM 55.0 °F 55.0 °F 100% 29.84 in 3.0 mi Calm Calm - 0.27 in Rain Heavy Rain
2:12 PM 55.9 °F 55.0 °F 97% 29.83 in 5.0 mi Calm Calm - 0.05 in Rain Rain
2:53 PM 57.0 °F 55.0 °F 93% 29.79 in 10.0 mi SW 5.8 mph - 0.09 in Rain Light Rain
3:53 PM 60.1 °F 57.9 °F 93% 29.73 in 10.0 mi SSW 10.4 mph - 0.01 in   Clear
4:53 PM 62.1 °F 57.9 °F 86% 29.71 in 10.0 mi SSW 13.8 mph - N/A   Scattered Clouds
5:53 PM 64.0 °F 57.9 °F 80% 29.70 in 10.0 mi SW 9.2 mph - N/A   Mostly Cloudy
6:53 PM 63.0 °F 57.9 °F 84% 29.71 in 10.0 mi SSW 11.5 mph - N/A   Clear
7:53 PM 62.1 °F 57.0 °F 84% 29.79 in 10.0 mi SW 10.4 mph - N/A   Mostly Cloudy
8:15 PM 62.1 °F 57.9 °F 86% 29.82 in 10.0 mi SW 9.2 mph - N/A   Mostly Cloudy
8:53 PM 62.1 °F 57.0 °F 84% 29.80 in 10.0 mi SW 10.4 mph - N/A   Mostly Cloudy
9:53 PM 61.0 °F 57.0 °F 87% 29.75 in 10.0 mi SSE 4.6 mph - 0.00 in   Mostly Cloudy
10:00 PM 60.1 °F 55.9 °F 86% 29.74 in 10.0 mi South 6.9 mph - N/A   Scattered Clouds
11:50 PM 57.2 °F 57.2 °F 100% 29.76 in 10.0 mi NNW 3.5 mph - N/A   Mostly Cloudy
11:53 PM 57.9 °F 57.0 °F 97% 29.76 in 10.0 mi NW 3.5 mph - N/A   Mostly Cloudy